Location: Newark
(33.6439°N, 114.9881°W)
Time: 03:31:36
(UTC+00:00)

A-11 Canister half - Pass Details

Date: 26 August 2019
Orbit: 1527 x 1682 km, 47.3° (Epoch: 20 September)

Event Time Altitude Azimuth Distance (km) Brightness Sun altitude
Rises 16:59:56 0° 217° (SW) 4,761 11.5 46.3°
Reaches altitude 10° 17:03:01 10° 214° (SW) 3,799 11.1 46.8°
Maximum altitude 17:12:33 64° 136° (SE) 1,782 11.2 48.7°
Drops below altitude 10° 17:22:25 10° 58° (ENE) 3,922 11.5 50.5°
Sets 17:25:38 0° 55° (NE) 4,924 11.9 51.1°
